Location: ??
(31.9467°N, 34.8903°E)
Time: 12:33:07
(UTC+00:00)

Helios 1A Rocket - Pass Details

Date: 29 October 2020
Orbit: 562 x 587 km, 98.3° (Epoch: 26 November)

Event Time Altitude Azimuth Distance (km) Brightness Sun altitude
Rises 15:33:12 0° 141° (SE) 2,795 6.1 -9.1°
Reaches altitude 10° 15:35:37 10° 128° (SE) 1,896 5.2 -9.6°
Maximum altitude 15:39:02 26° 71° (ENE) 1,159 3.9 -10.3°
Drops below altitude 10° 15:42:27 10° 15° (NNE) 1,896 5.3 -11.0°
Sets 15:44:51 0° 3° (N) 2,794 6.3 -11.5°
